Starlink 5030

operational
NORAD ID: 55418 Int'l Des: 2023-014 Owner: SPXS Country: US Constellation: starlink
LEOCIRCULAR

关于 Starlink 5030

正在加载描述...

实时位置

正在加载3D地球...

即将过境

高度历史

Altitude vs Time

uPlot chart will show altitude changes over time

两行轨道根数

1 55418U 23014AD 25260.12518223 -.00000997 00000-0 -75781-4 0 9991
2 55418 70.0005 162.0892 0002652 269.8290 90.2565 14.98319199145568
Epoch: Sep 17, 2025 • Age: 21 hours

当前状态

高度 585.2 km
速度 7.57 km/s
星下点 68.59°N, 132.86°W
发射日期 Jan 31, 2023
运行时间 2.6 years
类型 internet

技术详情

分类 Payload
质量 305.00 kg
干质量 290.00 kg
总质量 305.00 kg
长度 0.20 m
直径 2.80 m
跨度 9.00 m
形状 Box + pan
制造商 SPXS
平台类型 Starlink
阶段状态 In Orbit
所有者/国家 SPXS/US

大型星座

Loading constellations...